D8954 Weather Reports


Display with metric or nautical units.
time (UTC)temp
F
wind
direction
speed
MPH
gust
MPH
rain 1hr
in
rain 24hr
in
rain mn
in
humidity
%
barometer
mb
20260831163504 61 186 3.0 7.0 0.13 0.27 0.27 83 1015.7
20260831163005 61 200 2.0 6.0 0.13 0.27 0.27 83 1015.9
20260831162505 61 206 2.0 5.0 0.13 0.27 0.27 83 1015.9
20260831161505 61 204 5.0 7.0 0.13 0.27 0.27 82 1015.9
20260831161004 61 200 5.0 10.0 0.13 0.27 0.27 82 1015.8
20260831160005 61 218 8.0 14.0 0.13 0.27 0.27 83 1015.9
20260831155504 62 200 5.0 12.0 0.12 0.26 0.26 83 1016.0
20260831155005 62 204 6.0 12.0 0.12 0.26 0.26 81 1016.2
20260831154505 64 204 7.0 12.0 0.07 0.21 0.21 77 1016.1
20260831154006 65 355 4.0 8.0 0.00 0.14 0.14 75 1015.5
20260831153505 65 349 3.0 5.0 0.00 0.14 0.14 73 1015.2
20260831153006 66 5 1.0 2.0 0.00 0.14 0.14 71 1015.1
20260831152505 66 5 0.0 2.0 0.00 0.14 0.14 70 1014.9
20260831151505 66 42 4.0 8.0 0.00 0.14 0.14 69 1014.8
20260831151005 67 23 4.0 9.0 0.00 0.14 0.14 68 1014.9
20260831150505 67 19 7.0 12.0 0.00 0.14 0.14 67 1014.8
20260831150005 69 356 7.0 20.0 0.00 0.14 0.14 64 1014.8
20260831145505 70 343 5.0 10.0 0.00 0.14 0.14 61 1014.8
20260831145005 71 317 4.0 6.0 0.00 0.14 0.14 57 1014.9
20260831144505 71 200 5.0 9.0 0.00 0.14 0.14 56 1014.5
20260831144006 71 230 5.0 8.0 0.00 0.14 0.14 55 1014.4
20260831143505 71 234 4.0 14.0 0.00 0.14 0.14 56 1014.4
20260831143005 71 237 7.0 10.0 0.00 0.14 0.14 56 1014.5
20260831142505 71 242 3.0 10.0 0.00 0.14 0.14 58 1014.4
20260831142005 71 222 7.0 12.0 0.00 0.14 0.14 57 1014.5
20260831141505 71 222 5.0 12.0 0.00 0.14 0.14 56 1014.4
20260831141005 71 219 7.0 18.0 0.00 0.14 0.14 56 1014.4
20260831140504 71 218 8.0 17.0 0.00 0.14 0.14 56 1014.5
20260831140005 70 216 9.0 15.0 0.00 0.14 0.14 56 1014.5
20260831135505 70 232 7.0 17.0 0.00 0.14 0.14 58 1014.6
20260831135005 70 230 10.0 16.0 0.00 0.14 0.14 58 1014.6
20260831134505 70 241 5.0 20.0 0.00 0.14 0.14 61 1014.7
20260831134006 70 215 10.0 20.0 0.00 0.14 0.14 59 1014.7
20260831133505 71 220 12.0 16.0 0.00 0.14 0.14 58 1014.8
20260831133005 71 212 6.0 16.0 0.00 0.14 0.14 59 1014.8
20260831132505 71 229 5.0 14.0 0.00 0.14 0.14 60 1014.8
20260831132005 70 217 5.0 14.0 0.00 0.14 0.14 62 1014.9
20260831131506 71 203 7.0 12.0 0.00 0.14 0.14 60 1014.9
20260831131006 72 217 5.0 12.0 0.00 0.14 0.14 60 1014.9
20260831130507 70 220 7.0 16.0 0.00 0.14 0.14 61 1015.0
20260831130005 70 224 5.0 15.0 0.00 0.14 0.14 60 1015.0
20260831125505 72 206 9.0 20.0 0.00 0.14 0.14 59 1015.1
20260831125005 71 215 6.0 13.0 0.00 0.14 0.14 62 1015.0
20260831124504 71 249 6.0 14.0 0.00 0.14 0.14 64 1015.1
20260831124006 70 207 5.0 15.0 0.00 0.14 0.14 64 1015.1
20260831123505 70 191 6.0 12.0 0.00 0.14 0.14 66 1015.3
20260831123004 69 254 5.0 10.0 0.00 0.14 0.14 69 1015.2
20260831122505 68 217 5.0 12.0 0.00 0.14 0.14 71 1015.2
20260831122005 67 195 4.0 10.0 0.00 0.14 0.14 75 1015.4
20260831121505 65 207 7.0 13.0 0.00 0.14 0.14 76 1015.5
20260831121005 65 211 3.0 5.0 0.02 0.14 0.14 79 1015.5
20260831120505 66 234 3.0 12.0 0.04 0.14 0.14 75 1015.5
20260831120004 68 276 7.0 12.0 0.04 0.14 0.14 71 1015.6
20260831113505 66 206 4.0 8.0 0.04 0.14 0.14 77 1015.3
20260831113005 67 194 2.0 3.0 0.04 0.14 0.14 78 1015.3
20260831112504 66 213 2.0 8.0 0.04 0.14 0.14 79 1015.4
20260831111005 67 233 5.0 12.0 0.02 0.13 0.13 70 1015.5
20260831110505 68 232 2.0 15.0 0.00 0.10 0.10 66 1015.1
20260831105505 69 227 8.0 17.0 0.00 0.10 0.10 67 1015.0
20260831105005 68 226 6.0 13.0 0.00 0.10 0.10 68 1014.9
20260831104006 67 221 6.0 17.0 0.00 0.10 0.10 68 1015.1
20260831103505 69 234 11.0 21.0 0.00 0.10 0.10 65 1015.2
20260831103004 70 211 5.0 14.0 0.00 0.10 0.10 67 1015.0
20260831102505 70 207 9.0 14.0 0.00 0.10 0.10 66 1014.9
20260831102005 69 215 8.0 16.0 0.00 0.10 0.10 66 1015.0
20260831101505 68 215 6.0 17.0 0.00 0.10 0.10 68 1015.2
20260831101005 69 218 9.0 17.0 0.00 0.10 0.10 67 1015.1
20260831100005 69 202 5.0 13.0 0.00 0.10 0.10 70 1015.2
20260831095505 68 242 6.0 14.0 0.00 0.10 0.10 70 1015.3
20260831095005 68 221 6.0 10.0 0.00 0.10 0.10 69 1015.3
20260831094005 68 219 10.0 21.0 0.00 0.10 0.10 68 1015.3
20260831093505 67 214 4.0 9.0 0.00 0.10 0.10 71 1015.3
20260831093005 68 200 5.0 13.0 0.00 0.10 0.10 69 1015.2
20260831092507 68 210 5.0 10.0 0.00 0.10 0.10 71 1015.3
20260831092005 67 212 6.0 13.0 0.00 0.10 0.10 71 1015.3
20260831091504 67 232 6.0 16.0 0.00 0.10 0.10 74 1015.3
20260831090504 66 177 3.0 8.0 0.00 0.10 0.10 72 1015.3
20260831090004 67 233 10.0 16.0 0.00 0.10 0.10 71 1015.3
20260831085504 67 219 8.0 15.0 0.00 0.10 0.10 73 1015.2
20260831085004 67 216 7.0 16.0 0.00 0.10 0.10 73 1015.1
20260831084505 67 206 6.0 13.0 0.00 0.10 0.10 74 1015.1
20260831083504 66 210 9.0 21.0 0.00 0.10 0.10 73 1015.1
20260831083005 66 214 6.0 17.0 0.00 0.10 0.10 74 1015.1
20260831082505 66 223 3.0 8.0 0.00 0.10 0.10 74 1015.1
20260831082005 66 216 6.0 12.0 0.00 0.10 0.10 73 1015.1
20260831081505 66 204 9.0 16.0 0.00 0.10 0.10 73 1015.0
20260831081005 66 218 5.0 9.0 0.00 0.10 0.10 74 1015.0
20260831080505 66 209 4.0 9.0 0.00 0.10 0.10 76 1014.9
20260831080004 65 209 2.0 12.0 0.00 0.10 0.10 77 1014.8
20260831075505 65 240 5.0 12.0 0.00 0.10 0.10 76 1014.9
20260831075005 65 214 4.0 9.0 0.00 0.10 0.10 76 1014.8
20260831074504 65 212 6.0 12.0 0.00 0.10 0.10 78 1014.7
20260831074005 64 241 4.0 12.0 0.00 0.10 0.10 79 1014.7
20260831073505 64 196 5.0 9.0 0.00 0.10 0.10 80 1014.6
20260831073004 63 213 5.0 9.0 0.00 0.10 0.10 80 1014.7
20260831072504 64 201 5.0 10.0 0.00 0.10 0.10 79 1014.6
20260831072004 65 230 4.0 10.0 0.00 0.10 0.10 78 1014.6
20260831071505 65 212 6.0 12.0 0.00 0.10 0.10 79 1014.6
20260831070505 64 230 6.0 13.0 0.00 0.10 0.10 81 1014.4
20260831065504 64 220 4.0 8.0 0.00 0.10 0.10 82 1014.5
20260831064505 64 153 2.0 6.0 0.00 0.10 0.10 83 1014.4
20260831064005 64 15 2.0 8.0 0.00 0.10 0.10 84 1014.4
20260831063504 63 203 1.0 5.0 0.00 0.10 0.10 83 1014.3
20260831062504 63 205 3.0 6.0 0.00 0.10 0.10 84 1014.3
20260831061005 62 214 4.0 10.0 0.00 0.10 0.10 84 1014.1
20260831060504 62 210 2.0 8.0 0.00 0.10 0.10 85 1014.1
20260831055505 62 235 4.0 8.0 0.00 0.10 0.10 84 1014.1
20260831055005 62 240 4.0 9.0 0.00 0.10 0.10 85 1014.0
20260831054505 61 231 2.0 7.0 0.00 0.10 0.10 85 1013.9
20260831054005 61 234 3.0 7.0 0.00 0.10 0.10 85 1013.8
20260831053505 61 225 3.0 10.0 0.00 0.10 0.10 86 1013.8
20260831053004 61 207 3.0 12.0 0.00 0.10 0.10 86 1013.7
20260831052504 61 232 4.0 10.0 0.00 0.10 0.10 86 1013.6
20260831052005 61 252 2.0 5.0 0.00 0.10 0.10 86 1013.6
20260831051504 60 252 4.0 8.0 0.00 0.10 0.10 86 1013.5
20260831051005 61 219 4.0 12.0 0.00 0.10 0.10 86 1013.6
20260831050504 61 247 3.0 10.0 0.00 0.10 0.10 87 1013.6
20260831050004 60 206 3.0 7.0 0.00 0.10 0.10 87 1013.5
20260831045504 60 242 4.0 9.0 0.00 0.10 0.10 87 1013.5
20260831045005 60 201 2.0 5.0 0.00 0.10 0.10 87 1013.5
20260831044505 60 208 2.0 3.0 0.00 0.10 0.10 87 1013.4
20260831043005 61 229 2.0 7.0 0.00 0.10 0.10 88 1013.3
20260831042504 61 212 3.0 6.0 0.00 0.10 0.10 88 1013.4
20260831042005 61 244 5.0 10.0 0.00 0.10 0.10 89 1013.3
20260831041504 61 215 2.0 8.0 0.00 0.10 0.10 89 1013.4
20260831040005 61 207 3.0 5.0 0.00 0.10 0.10 90 1013.1
20260831035504 61 211 1.0 3.0 0.00 0.10 0.10 90 1013.1
20260831035005 61 213 1.0 3.0 0.00 0.10 0.10 90 1013.1
20260831034504 61 212 1.0 2.0 0.00 0.10 0.10 90 1013.1
20260831034005 61 202 1.0 2.0 0.00 0.10 0.10 90 1013.0
20260831033504 61 202 2.0 3.0 0.00 0.10 0.10 90 1013.1
20260831033005 61 247 2.0 3.0 0.00 0.10 0.10 90 1013.0
20260831032505 61 155 1.0 2.0 0.00 0.10 0.10 90 1012.9
20260831031504 61 215 1.0 3.0 0.00 0.10 0.10 90 1013.0
20260831030504 60 225 2.0 2.0 0.00 0.10 0.10 90 1013.0
20260831030004 60 225 1.0 3.0 0.00 0.10 0.10 90 1012.8
20260831025504 60 250 2.0 2.0 0.00 0.10 0.10 90 1012.9
20260831025004 60 288 1.0 2.0 0.00 0.10 0.10 90 1012.7
20260831024005 60 282 2.0 3.0 0.00 0.10 0.10 90 1012.7
20260831023505 60 228 1.0 2.0 0.00 0.10 0.10 90 1012.8
20260831023005 60 227 0.0 1.0 0.00 0.10 0.10 90 1012.8
20260831022505 60 227 1.0 2.0 0.00 0.10 0.10 90 1012.6
20260831022005 60 228 0.0 2.0 0.00 0.10 0.10 90 1012.6
20260831021505 60 228 0.0 2.0 0.00 0.10 0.10 90 1012.6
20260831021004 60 228 0.0 2.0 0.00 0.10 0.10 90 1012.4
20260831020504 60 228 1.0 1.0 0.01 0.10 0.10 90 1012.4
20260831020005 60 228 0.0 2.0 0.01 0.10 0.10 90 1012.3
20260831015504 61 222 1.0 2.0 0.02 0.10 0.10 90 1012.3
20260831015005 61 219 1.0 2.0 0.04 0.10 0.10 90 1012.4
20260831014504 61 219 0.0 1.0 0.07 0.10 0.10 90 1012.4
20260831014006 61 219 0.0 2.0 0.09 0.10 0.10 89 1012.4
20260831013505 61 219 1.0 2.0 0.10 0.10 0.10 89 1012.5
20260831013005 61 217 0.0 2.0 0.10 0.10 0.10 89 1012.5
20260831012504 61 217 0.0 0.0 0.10 0.10 0.10 89 1012.4
20260831012005 61 217 0.0 2.0 0.10 0.10 0.10 88 1012.6
20260831011505 61 217 0.0 2.0 0.10 0.10 0.10 87 1012.7
20260831011004 61 217 0.0 2.0 0.10 0.10 0.10 87 1012.7
20260831010504 61 217 1.0 3.0 0.09 0.09 0.09 86 1012.9
20260831010004 61 210 2.0 5.0 0.09 0.09 0.09 86 1012.9
20260831005505 62 149 1.0 5.0 0.09 0.09 0.09 85 1013.0
20260831005004 62 343 1.0 8.0 0.06 0.06 0.06 84 1013.1
20260831003504 64 281 0.0 0.0 0.00 0.00 0.00 80 1012.3
20260831003004 64 281 0.0 0.0 0.00 0.00 0.00 79 1012.1
20260831002505 64 281 0.0 0.0 0.00 0.00 0.00 77 1012.0
20260831002005 64 281 0.0 0.0 0.00 0.00 0.00 77 1011.9
20260831001504 64 281 0.0 0.0 0.00 0.00 0.00 77 1011.9
20260831001005 64 281 0.0 0.0 0.00 0.00 0.00 77 1011.9
20260831000504 64 281 0.0 0.0 0.00 0.00 0.00 77 1012.0
20260830235504 64 281 0.0 0.0 0.00 0.00 0.00 80 1012.0
20260830234505 64 281 0.0 0.0 0.00 0.00 0.00 78 1012.1
20260830233505 63 281 0.0 0.0 0.00 0.00 0.00 81 1012.1
20260830233004 62 281 0.0 0.0 0.00 0.00 0.00 82 1012.2
20260830232504 62 281 0.0 0.0 0.00 0.00 0.00 83 1012.2
20260830232005 62 281 0.0 0.0 0.00 0.00 0.00 83 1012.3
20260830231504 62 281 0.0 0.0 0.00 0.00 0.00 83 1012.4
20260830230505 62 281 0.0 2.0 0.00 0.00 0.00 83 1012.5
20260830230005 62 281 0.0 2.0 0.00 0.00 0.00 83 1012.6
20260830225505 62 281 0.0 1.0 0.00 0.00 0.00 83 1012.7
20260830225005 61 281 0.0 1.0 0.00 0.00 0.00 83 1012.8
20260830224504 62 281 1.0 1.0 0.00 0.00 0.00 82 1012.9
20260830224005 62 281 1.0 2.0 0.00 0.00 0.00 83 1012.9
20260830223504 61 281 1.0 1.0 0.00 0.00 0.00 83 1012.9
20260830223005 61 281 0.0 2.0 0.00 0.00 0.00 83 1013.0
20260830222504 61 281 2.0 3.0 0.00 0.00 0.00 82 1013.0
20260830222004 61 281 2.0 3.0 0.00 0.00 0.00 83 1013.0
20260830221504 61 281 0.0 2.0 0.00 0.00 0.00 83 1013.0
20260830221004 61 280 2.0 2.0 0.00 0.00 0.00 83 1013.0
20260830220004 61 281 1.0 2.0 0.00 0.00 0.00 82 1013.0
20260830215004 62 283 2.0 3.0 0.00 0.00 0.00 81 1013.1
20260830214005 62 285 2.0 2.0 0.00 0.00 0.00 80 1013.1
20260830213504 62 284 1.0 2.0 0.00 0.00 0.00 81 1013.1
20260830213005 62 284 1.0 2.0 0.00 0.00 0.00 81 1013.2
20260830212504 62 286 0.0 2.0 0.00 0.00 0.00 82 1013.1
20260830212005 62 286 0.0 0.0 0.00 0.00 0.00 81 1013.1
20260830211504 62 286 0.0 2.0 0.00 0.00 0.00 82 1013.2
20260830211004 62 286 0.0 2.0 0.00 0.00 0.00 81 1013.3
20260830210505 62 286 2.0 3.0 0.00 0.00 0.00 81 1013.4
20260830210004 62 282 3.0 3.0 0.00 0.00 0.00 81 1013.4
20260830205504 62 279 2.0 3.0 0.00 0.00 0.00 81 1013.4
20260830205004 62 278 3.0 3.0 0.00 0.00 0.00 81 1013.4
20260830204504 62 277 2.0 3.0 0.00 0.00 0.00 80 1013.4
20260830203004 63 276 2.0 2.0 0.00 0.00 0.00 79 1013.4
20260830202505 63 276 2.0 2.0 0.00 0.00 0.00 79 1013.4
20260830202004 63 279 2.0 2.0 0.00 0.00 0.00 79 1013.4
20260830201004 63 282 2.0 3.0 0.00 0.00 0.00 79 1013.5
20260830200504 63 282 2.0 3.0 0.00 0.00 0.00 79 1013.6
20260830200004 63 282 3.0 3.0 0.00 0.00 0.00 78 1013.6
20260830195505 63 225 2.0 3.0 0.00 0.00 0.00 78 1013.5
20260830194504 64 224 0.0 2.0 0.00 0.00 0.00 77 1013.6
20260830194005 64 224 2.0 2.0 0.00 0.00 0.00 76 1013.6
20260830193004 64 224 2.0 2.0 0.00 0.00 0.00 76 1013.7
20260830192504 65 224 2.0 3.0 0.00 0.00 0.00 75 1013.6
20260830192004 65 222 2.0 2.0 0.00 0.00 0.00 75 1013.7
20260830191004 65 222 2.0 2.0 0.00 0.00 0.00 74 1013.6
20260830190505 65 222 2.0 2.0 0.00 0.00 0.00 74 1013.6
20260830190004 65 221 1.0 2.0 0.00 0.00 0.00 73 1013.9
20260830185504 66 221 2.0 2.0 0.00 0.00 0.00 73 1013.4
20260830185004 66 221 2.0 2.0 0.00 0.00 0.00 72 1013.4
20260830184504 66 221 2.0 2.0 0.00 0.00 0.00 72 1013.4
20260830184005 66 220 1.0 2.0 0.00 0.00 0.00 71 1013.3
20260830183505 67 220 2.0 3.0 0.00 0.00 0.00 71 1013.3
20260830183004 67 219 2.0 2.0 0.00 0.00 0.00 70 1013.2
20260830182504 67 219 2.0 2.0 0.00 0.00 0.00 69 1013.2
20260830182004 68 218 1.0 2.0 0.00 0.00 0.00 69 1013.2
20260830181504 68 218 1.0 1.0 0.00 0.00 0.00 68 1013.2
20260830181004 69 218 1.0 1.0 0.00 0.00 0.00 68 1013.3
20260830180504 69 218 1.0 1.0 0.00 0.00 0.00 67 1013.2
20260830180004 70 218 1.0 2.0 0.00 0.00 0.00 66 1013.3
20260830175504 70 218 1.0 2.0 0.00 0.00 0.00 65 1013.3
20260830175004 71 218 0.0 2.0 0.00 0.00 0.00 64 1013.2
20260830174504 71 218 1.0 7.0 0.00 0.00 0.00 64 1013.2
20260830174005 71 229 1.0 3.0 0.00 0.00 0.00 64 1013.2
20260830173504 71 210 2.0 3.0 0.00 0.00 0.00 63 1013.1
20260830173004 72 226 2.0 3.0 0.00 0.00 0.00 63 1013.1
20260830172504 72 236 3.0 10.0 0.00 0.00 0.00 62 1013.0
20260830172004 72 211 2.0 6.0 0.00 0.00 0.00 62 1013.0
20260830171504 73 215 2.0 3.0 0.00 0.00 0.00 61 1013.1
20260830171004 73 221 2.0 3.0 0.00 0.00 0.00 61 1013.1
20260830170504 73 216 3.0 6.0 0.00 0.00 0.00 60 1013.2
20260830170004 73 208 1.0 3.0 0.00 0.00 0.00 59 1013.1
20260830165504 73 204 2.0 6.0 0.00 0.00 0.00 59 1013.1
20260830164505 73 231 2.0 5.0 0.00 0.00 0.00 58 1013.1